Weather History for Klamath Falls, OR

Change the Weather History Date:

Friday, August 30, 2013

  Actual Average Record
Temperature  
Mean Temperature 63 °F 62 °F  
Max Temperature 84 °F 80 °F 93 °F (1998)
Min Temperature 42 °F 44 °F 34 °F (2005)
Degree Days  
Heating Degree Days 2 4  
Month to date heating degree days 67 64  
Since 1 June heating degree days 246 331  
Since 1 July heating degree days 68 114  
Cooling Degree Days 0 1  
Month to date cooling degree days 49 62  
Year to date cooling degree days 267 156  
Since 1 June cooling degree days 267 155  
Growing Degree Days 12 (Base 50)    
Moisture  
Dew Point 46 °F    
Average Humidity 71    
Maximum Humidity 100    
Minimum Humidity 22    
Precipitation  
Precipitation 0.00 in 0.02 in 0.97 in (1984)
Month to date precipitation 0.24 0.40  
Year to date precipitation 4.79 9.71  
Sea Level Pressure  
Sea Level Pressure 30.10 in    
Wind  
Wind Speed 3 mph (East)    
Max Wind Speed 10 mph    
Max Gust Speed 13 mph    
Visibility 7 miles    
Events Fog    
T = Trace of Precipitation, MM = Missing Value Source: NWS Daily Summary

Daily Weather History Graph

Daily Weather History Graph

Search for Another Location

Airport:

Trip Planner

Search our weather history database for the weather conditions in past years. The results will help you decide how hot, cold, wet, or windy it might be!

Date:

Astronomy

Aug. 30, 2013 Rise Set
Actual Time 6:30 AM PDT 7:43 PM PDT
Civil Twilight 6:01 AM PDT 8:12 PM PDT
Nautical Twilight 5:27 AM PDT 8:46 PM PDT
Astronomical Twilight 4:50 AM PDT 9:22 PM PDT
Moon 1:10 AM PDT (8/30) 4:06 PM PDT (8/30)
Length of Visible Light 14h 10m
Length of Day
13h 12m
Waning Crescent, 28% of the Moon is Illuminated
Aug 30
Waning Crescent
Sep 5
New
Sep 12
First Quarter
Sep 19
Full
Sep 26
Last Quarter

Hourly Weather History & Observations

Time (PDT) Temp. Dew Point Humidity Pressure Visibility Wind Dir Wind Speed Gust Speed Precip Events Conditions
12:53 AM 51.1 °F 48.0 °F 89% 30.07 in 10.0 mi Calm Calm - N/A   Clear
1:53 AM 50.0 °F 48.0 °F 93% 30.07 in 10.0 mi SSE 3.5 mph - N/A   Clear
2:53 AM 48.0 °F 46.0 °F 93% 30.07 in 10.0 mi Calm Calm - N/A   Clear
3:53 AM 48.0 °F 45.0 °F 89% 30.08 in 10.0 mi NNE 3.5 mph - N/A   Clear
4:53 AM 46.0 °F 45.0 °F 96% 30.09 in 2.5 mi Calm Calm - N/A   Clear
5:13 AM 46.4 °F 44.6 °F 93% 30.19 in 10.0 mi Calm Calm - N/A   Clear
5:36 AM 46.4 °F 44.6 °F 93% 30.19 in 1.8 mi Calm Calm - N/A   Clear
5:38 AM 46.4 °F 44.6 °F 93% 30.19 in 1.0 mi Calm Calm - N/A   Mist
5:41 AM 46.4 °F 44.6 °F 93% 30.19 in 0.5 mi Calm Calm - N/A Fog Fog
5:48 AM 44.6 °F 42.8 °F 93% 30.20 in 0.2 mi Calm Calm - N/A Fog Fog
5:53 AM 44.1 °F 43.0 °F 96% 30.11 in 0.5 mi Calm Calm - N/A Fog Fog
6:21 AM 44.6 °F 42.8 °F 93% 30.20 in 1.2 mi Calm Calm - N/A   Partly Cloudy
6:25 AM 42.8 °F 42.8 °F 100% 30.20 in 0.8 mi Calm Calm - N/A   Mist
6:33 AM 42.8 °F 42.8 °F 100% 30.20 in 0.8 mi Calm Calm - N/A   Clear
6:43 AM 44.6 °F 44.6 °F 100% 30.20 in 1.0 mi Calm Calm - N/A   Mist
6:53 AM 43.0 °F 42.1 °F 97% 30.12 in 1.0 mi Calm Calm - N/A   Mist
7:09 AM 44.6 °F 44.6 °F 100% 30.21 in 10.0 mi Calm Calm - N/A   Clear
7:53 AM 53.1 °F 50.0 °F 89% 30.13 in 10.0 mi Calm Calm - N/A   Clear
8:53 AM 59.0 °F 52.0 °F 78% 30.13 in 10.0 mi Calm Calm - N/A   Clear
9:53 AM 64.9 °F 52.0 °F 63% 30.12 in 10.0 mi Calm Calm - N/A   Clear
10:53 AM 69.1 °F 50.0 °F 51% 30.12 in 10.0 mi SE 3.5 mph - N/A   Clear
11:53 AM 73.0 °F 48.9 °F 42% 30.09 in 10.0 mi SSW 4.6 mph - N/A   Clear
12:53 PM 75.9 °F 46.0 °F 35% 30.08 in 10.0 mi Variable 5.8 mph - N/A   Clear
1:53 PM 79.0 °F 45.0 °F 30% 30.06 in 10.0 mi Calm Calm - N/A   Clear
2:53 PM 81.0 °F 45.0 °F 28% 30.04 in 10.0 mi East 4.6 mph - N/A   Clear
3:53 PM 82.0 °F 44.1 °F 26% 30.01 in 10.0 mi East 4.6 mph - N/A   Clear
4:53 PM 82.0 °F 44.1 °F 26% 30.00 in 10.0 mi SSE 4.6 mph - N/A   Clear
5:53 PM 82.9 °F 44.1 °F 25% 29.99 in 10.0 mi Calm Calm - N/A   Clear
6:53 PM 82.0 °F 39.0 °F 22% 29.99 in 10.0 mi NNW 9.2 mph - N/A   Clear
7:53 PM 72.0 °F 41.0 °F 33% 29.99 in 10.0 mi NW 4.6 mph - N/A   Clear
8:53 PM 71.1 °F 48.9 °F 45% 29.99 in 10.0 mi NNW 9.2 mph - N/A   Clear
9:53 PM 66.9 °F 52.0 °F 59% 30.00 in 10.0 mi West 8.1 mph - N/A   Clear
10:53 PM 60.1 °F 51.1 °F 72% 30.01 in 10.0 mi Calm Calm - N/A   Clear
11:53 PM 53.1 °F 48.9 °F 86% 30.02 in 10.0 mi Calm Calm - N/A   Clear